Weather History for Spencer, IA

Change the Weather History Date:

Friday, October 18, 2013

  Actual Average Record
Temperature  
Mean Temperature 40 °F -  
Max Temperature 53 °F 54 °F 84 °F (2003)
Min Temperature 30 °F 34 °F 25 °F (1989)
Degree Days  
Heating Degree Days 24    
Moisture  
Dew Point 29 °F    
Average Humidity 65    
Maximum Humidity 89    
Minimum Humidity 35    
Precipitation  
Precipitation 0.00 in - - ()
Sea Level Pressure  
Sea Level Pressure 30.02 in    
Wind  
Wind Speed 11 mph (West)    
Max Wind Speed 15 mph    
Max Gust Speed 22 mph    
Visibility 10 miles    
Events      
Averages and records for this station are not official NWS values.
T = Trace of Precipitation, MM = Missing Value Source: NWS Daily Summary

Daily Weather History Graph

Daily Weather History Graph

Search for Another Location

Airport:

Trip Planner

Search our weather history database for the weather conditions in past years. The results will help you decide how hot, cold, wet, or windy it might be!

Date:

Astronomy

Oct. 18, 2013 Rise Set
Actual Time 7:38 AM CDT 6:32 PM CDT
Civil Twilight 7:09 AM CDT 7:01 PM CDT
Nautical Twilight 6:36 AM CDT 7:34 PM CDT
Astronomical Twilight 6:03 AM CDT 8:07 PM CDT
Moon 6:22 PM CDT (10/18) 7:15 AM CDT (10/18)
Length of Visible Light 11h 51m
Length of Day
10h 54m
Full, 100% of the Moon is Illuminated
Oct 18
Full
Oct 18
Full
Oct 26
Last Quarter
Nov 3
New
Nov 9
First Quarter

Hourly Weather History & Observations

Time (CDT) Temp. Windchill Dew Point Humidity Pressure Visibility Wind Dir Wind Speed Gust Speed Precip Events Conditions
12:53 AM 41.0 °F 33.9 °F 35.1 °F 79% 29.99 in 10.0 mi WNW 12.7 mph - N/A   Overcast
1:53 AM 39.9 °F 32.9 °F 34.0 °F 79% 29.99 in 10.0 mi WNW 11.5 mph - N/A   Mostly Cloudy
2:53 AM 39.9 °F 32.9 °F 34.0 °F 79% 30.00 in 10.0 mi WNW 11.5 mph - N/A   Overcast
3:53 AM 39.0 °F 32.3 °F 33.1 °F 79% 30.01 in 10.0 mi WNW 10.4 mph - N/A   Overcast
4:53 AM 36.0 °F 28.5 °F 30.9 °F 82% 30.03 in 10.0 mi WNW 10.4 mph - N/A   Scattered Clouds
5:53 AM 35.1 °F 26.4 °F 30.9 °F 85% 30.05 in 10.0 mi WNW 12.7 mph - N/A   Clear
6:53 AM 33.1 °F 25.5 °F 30.0 °F 89% 30.06 in 10.0 mi WNW 9.2 mph - N/A   Clear
7:53 AM 30.9 °F 25.2 °F 28.0 °F 89% 30.07 in 10.0 mi West 5.8 mph - N/A   Clear
8:53 AM 35.1 °F 28.6 °F 30.0 °F 82% 30.08 in 10.0 mi WNW 8.1 mph - N/A   Clear
9:53 AM 41.0 °F 34.7 °F 30.9 °F 67% 30.09 in 10.0 mi WNW 10.4 mph - N/A   Clear
10:53 AM 46.9 °F - 32.0 °F 56% 30.07 in 10.0 mi WNW 12.7 mph - N/A   Clear
11:53 AM 48.9 °F - 28.0 °F 44% 30.06 in 10.0 mi WNW 11.5 mph 21.9 mph N/A   Clear
12:53 PM 50.0 °F - 25.0 °F 38% 30.04 in 10.0 mi NW 10.4 mph 19.6 mph N/A   Clear
1:53 PM 51.1 °F - 25.0 °F 36% 30.03 in 10.0 mi Variable 5.8 mph 16.1 mph N/A   Scattered Clouds
2:53 PM 51.1 °F - 24.1 °F 35% 30.00 in 10.0 mi WNW 15.0 mph - N/A   Scattered Clouds
3:53 PM 50.0 °F - 25.0 °F 38% 30.00 in 10.0 mi WNW 11.5 mph - N/A   Mostly Cloudy
4:53 PM 50.0 °F - 25.0 °F 38% 29.99 in 10.0 mi West 9.2 mph - N/A   Overcast
5:53 PM 50.0 °F - 26.1 °F 39% 29.99 in 10.0 mi WSW 6.9 mph - N/A   Overcast
6:53 PM 42.1 °F 38.4 °F 26.1 °F 53% 29.99 in 10.0 mi WSW 5.8 mph - N/A   Clear
7:53 PM 37.9 °F 31.5 °F 27.0 °F 65% 29.99 in 10.0 mi WSW 9.2 mph - N/A   Mostly Cloudy
8:53 PM 41.0 °F 35.2 °F 28.9 °F 62% 29.98 in 10.0 mi West 9.2 mph - N/A   Mostly Cloudy
9:53 PM 42.1 °F 36.6 °F 33.1 °F 70% 29.97 in 10.0 mi West 9.2 mph - N/A   Overcast
10:53 PM 37.0 °F 31.0 °F 32.0 °F 82% 29.96 in 10.0 mi West 8.1 mph - N/A   Partly Cloudy
11:53 PM 36.0 °F 29.0 °F 32.0 °F 86% 29.94 in 10.0 mi WSW 9.2 mph - N/A   Partly Cloudy